sat.trackr.live / text

‹ back to catalog

STARLINK-32452

NORAD 61961 · 2024-210C

PAYLOAD ACTIVE UNKNOWN

§ Identity

Operator
Country
US
Launch date
2024-11-14
Launch site
AFETR
Launch vehicle
Mass (kg)
RCS (m²)

Purposes: comms

External: N2YO · Heavens-Above · Gunter

§ Orbital elements

Epoch: 2026-05-24T22:35:47.740128Z

Period
94.27 min
Inclination
43.0022°
Eccentricity
0.0001367
Mean motion
15.27572160 rev/d
Perigee alt
482.1 km
Apogee alt
484.0 km
Semi-major
6,861.2 km
B*
2.3399e-4
RAAN
102.1041°
Arg perigee
253.2335°
Mean anomaly
106.8367°
Rev number
8,665

§ Raw data

STARLINK-324521 61961U 24210C   26144.94152477  .00006181  00000+0  23399-3 0  99922 61961  43.0022 102.1041 0001367 253.2335 106.8367 15.27572160 86657

JSON: /api/v1/satellites/61961 · /tle

For live sub-satellite position, see the globe view (requires WebGL).

§ Visibility from observer

Set your observer location to see the next 7 days of passes ≥ 10°. The values pass through the URL so the page stays shareable.

No JS? Fill the form by hand. The geolocation button needs JavaScript.